[[{"header":{"parameterUnit":"m.s-1","parameterCategory":1,"la1":30.2991,"la2":30.254,"lo1":-89.0895,"lo2":-89.0444,"dy":0.0017,"dx":0.0017,"nx":28,"ny":28,"refTime":"2025-04-25T21:00:00:Z","depth":0,"parameterNumber":2,"parameterNumberName":"U-component_of_WINDS"},"data":[0,0,0,0,0,0,0,0,0,0,0,0,0,0,0,0,0,0,0,0,0,0,0,0,0,0,0,0,0,0,0,0,0,0,0,0,0,0,0,0,0,0,0,0,0,0,0,0,0,0,0,0,0,0,0,0,0,0,-0.6076,-0.6077,0,-0.6103,-0.6103,-0.6103,-0.6124,-0.6124,-0.6124,-0.6125,-0.6152,-0.6153,-0.6153,0,0,0,0,0,0,0,0,0,0,0,0,0,-0.6046,-0.6046,-0.6076,-0.6077,-0.6077,-0.6103,-0.6103,-0.6103,-0.6124,-0.6124,-0.6124,-0.6125,-0.6152,-0.6153,-0.6153,0,0,0,0,0,0,0,0,0,0,0,0,0,-0.6064,-0.6046,-0.6076,-0.609,-0.6092,-0.6103,-0.6103,-0.6103,-0.6124,-0.6124,-0.6125,-0.6125,-0.6152,-0.6152,-0.6153,-0.6152,0,0,-0.6156,-0.6156,0,0,0,0,0,0,0,0,-0.6063,-0.6065,-0.6088,-0.6089,-0.6091,-0.611,-0.6102,-0.612,-0.6124,-0.6112,-0.6125,-0.6125,-0.6138,-0.614,-0.6144,-0.6153,-0.6155,-0.6156,-0.6156,-0.6157,-0.6157,0,0,0,0,0,0,0,-0.6062,-0.6064,-0.6087,-0.6088,-0.609,-0.6096,-0.6099,-0.6106,-0.6123,-0.6113,-0.6114,-0.6117,-0.6139,-0.6143,-0.6145,-0.6155,-0.6156,-0.6157,-0.6157,-0.6157,-0.6167,-0.6166,0,0,0,0,0,0,-0.6058,-0.6063,-0.6086,-0.6088,-0.6078,-0.6096,-0.61,-0.6104,-0.6123,-0.6126,-0.6117,-0.6118,-0.6142,-0.6144,-0.6146,-0.6147,-0.6157,-0.6157,-0.6158,-0.6167,-0.6166,-0.6166,0,0,0,0,0,0,-0.6057,-0.606,-0.6085,-0.6076,-0.6079,-0.6096,-0.6101,-0.6104,-0.6109,-0.6126,-0.6129,-0.6118,-0.6142,-0.6145,-0.6151,-0.6148,-0.6158,-0.6159,-0.6167,-0.6167,-0.6166,-0.6148,0,0,0,0,0,0,-0.6056,-0.606,-0.6059,-0.6076,-0.608,-0.6089,-0.6101,-0.6105,-0.611,-0.6112,-0.6128,-0.6131,-0.6143,-0.615,-0.6152,-0.6149,-0.6159,-0.6167,-0.6167,-0.6166,-0.6149,-0.6147,-0.6145,0,0,0,0,0,-0.6055,-0.6052,-0.6059,-0.6061,-0.6079,-0.6088,-0.6091,-0.6104,-0.611,-0.6109,-0.6121,-0.613,-0.6148,-0.615,-0.6152,-0.615,-0.6168,-0.6167,-0.6166,-0.615,-0.6147,-0.6145,0,0,0,0,0,0,-0.6035,-0.6055,-0.6062,-0.6064,-0.6074,-0.6092,-0.6092,-0.6101,-0.611,-0.6111,-0.6128,-0.6131,-0.6135,-0.6144,-0.6145,-0.6151,-0.6159,-0.6159,-0.6146,-0.6144,-0.6142,-0.614,-0.616,0,0,0,0,0,-0.603,-0.6036,-0.6053,-0.6054,-0.6059,-0.6074,-0.6079,-0.6088,-0.61,-0.6104,-0.6116,-0.6127,-0.6135,-0.614,-0.6148,-0.6151,-0.6155,-0.6151,-0.6149,-0.6147,-0.6147,-0.615,-0.6149,-0.6164,-0.6164,-0.6164,0,0,-0.6021,-0.6033,-0.6036,-0.605,-0.6059,-0.6065,-0.6078,-0.6083,-0.6088,-0.6105,-0.6111,-0.612,-0.6134,-0.6138,-0.6141,-0.6145,-0.6144,-0.6147,-0.6145,-0.6146,-0.615,-0.6148,-0.6147,-0.6164,-0.6164,-0.6164,0,0,-0.6008,-0.6018,-0.6019,-0.6028,-0.6042,-0.6053,-0.6053,-0.607,-0.6076,-0.6083,-0.6097,-0.6103,-0.6116,-0.6126,-0.6132,-0.6125,-0.6134,-0.6127,-0.6118,-0.6121,-0.6119,-0.6118,-0.6116,-0.6115,-0.6127,-0.6127,-0.6127,0,-0.5996,-0.6005,-0.6019,-0.6024,-0.6031,-0.6047,-0.6049,-0.6057,-0.6073,-0.6078,-0.6082,-0.6101,-0.6111,-0.6118,-0.6116,-0.6121,-0.6123,-0.6125,-0.6118,-0.6118,-0.6117,-0.6115,-0.6114,-0.6126,-0.6126,-0.6126,-0.6126,0,-0.5989,-0.5995,-0.5995,-0.601,-0.6016,-0.602,-0.6036,-0.6041,-0.605,-0.6061,-0.6069,-0.6081,-0.6093,-0.6096,-0.6105,-0.6105,-0.6108,-0.6115,-0.6123,-0.6114,-0.6113,-0.6112,-0.6124,-0.6125,-0.6125,-0.6125,0,0,-0.5962,-0.5986,-0.5986,-0.5994,-0.6011,-0.6016,-0.6021,-0.6033,-0.6037,-0.6048,-0.6053,-0.6065,-0.6073,-0.608,-0.6091,-0.6093,-0.6088,-0.6101,-0.6101,-0.6098,-0.609,-0.6084,-0.6083,-0.6094,-0.6094,-0.6094,-0.6089,0,-0.5952,-0.5961,-0.5976,-0.5981,-0.5987,-0.6003,-0.6008,-0.602,-0.603,-0.6038,-0.605,-0.6058,-0.6067,-0.6072,-0.6075,-0.6087,-0.6086,-0.6088,-0.61,-0.61,-0.6096,-0.6082,-0.6076,-0.607,-0.6088,-0.6088,-0.6088,0,-0.5941,-0.5951,-0.5957,-0.5975,-0.5978,-0.5982,-0.5994,-0.6001,-0.6015,-0.6023,-0.6032,-0.6044,-0.6051,-0.6059,-0.607,-0.6071,-0.6077,-0.6084,-0.6084,-0.6085,-0.6093,-0.6084,-0.6068,-0.6068,-0.6088,-0.6088,-0.6088,0,-0.5922,-0.5937,-0.5943,-0.5949,-0.5969,-0.5972,-0.5981,-0.5995,-0.6001,-0.6013,-0.6018,-0.603,-0.6036,-0.6046,-0.6061,-0.6065,-0.6071,-0.608,-0.6078,-0.6078,-0.6078,-0.6078,-0.6064,-0.6082,-0.6082,-0.6082,-0.6082,0,-0.5909,-0.5912,-0.5934,-0.5938,-0.5942,-0.5959,-0.5963,-0.5974,-0.5986,-0.5993,-0.6008,-0.6014,-0.6034,-0.6042,-0.6054,-0.6062,-0.6065,-0.6072,-0.6075,-0.607,-0.607,-0.6074,-0.6075,-0.6081,-0.6081,-0.6081,-0.6082,0,-0.5888,-0.5903,-0.591,-0.593,-0.5935,-0.5937,-0.5954,-0.5959,-0.5971,-0.5979,-0.5982,-0.6,-0.6012,-0.6028,-0.6044,-0.6052,-0.6058,-0.6063,-0.6053,-0.6055,-0.6053,-0.6053,-0.6041,-0.6041,-0.6059,-0.6059,-0.6059,0,-0.5878,-0.5881,-0.5901,-0.5906,-0.5915,-0.5923,-0.593,-0.5947,-0.5954,-0.5971,-0.5974,-0.5986,-0.5997,-0.6014,-0.603,-0.6043,-0.6048,-0.6044,-0.605,-0.6046,-0.6049,-0.6049,-0.6049,-0.6042,-0.6041,-0.6041,-0.6041,0,-0.586,-0.5868,-0.5877,-0.589,-0.5898,-0.5909,-0.592,-0.5924,-0.5944,-0.5951,-0.5962,-0.5971,-0.5988,-0.6,-0.6015,-0.6025,-0.6037,-0.6039,-0.6039,-0.6035,-0.6029,-0.6033,-0.6049,-0.6039,-0.6039,-0.6039,-0.6039,-0.6039,-0.5845,-0.5849,-0.5864,-0.5874,-0.5885,-0.5895,-0.5901,-0.5914,-0.5924,-0.5938,-0.5948,-0.596,-0.5975,-0.5997,-0.6007,-0.6016,-0.6021,-0.6021,-0.6022,-0.6022,-0.602,-0.6028,-0.6019,-0.6019,-0.6019,-0.602,-0.602,0,-0.5828,-0.5839,-0.5849,-0.5864,-0.5873,-0.5883,-0.5897,-0.5903,-0.5913,-0.5926,-0.5937,-0.5951,-0.5963,-0.5981,-0.5995,-0.5999,-0.6005,-0.6002,-0.6002,-0.6005,-0.6015,-0.6013,-0.5998,-0.5998,-0.5998,-0.5998,-0.5998,-0.5998,-0.5821,-0.5828,-0.5837,-0.585,-0.5861,-0.5872,-0.5879,-0.589,-0.5901,-0.5916,-0.5926,-0.5937,-0.5953,-0.5968,-0.5981,-0.5986,-0.599,-0.5986,-0.5993,-0.6002,-0.6004,-0.6006,-0.6004,-0.5987,-0.5987,-0.5982,-0.5982,-0.5982]},{"header":{"parameterUnit":"m.s-1","parameterCategory":1,"la1":30.2991,"la2":30.254,"lo1":-89.0895,"lo2":-89.0444,"dy":0.0017,"dx":0.0017,"nx":28,"ny":28,"refTime":"2025-04-25T21:00:00:Z","depth":0,"parameterNumber":3,"parameterNumberName":"V-component_of_WINDS"},"data":[0,0,0,0,0,0,0,0,0,0,0,0,0,0,0,0,0,0,0,0,0,0,0,0,0,0,0,0,0,0,0,0,0,0,0,0,0,0,0,0,0,0,0,0,0,0,0,0,0,0,0,0,0,0,0,0,0,0,5.7455,5.7455,0,5.7435,5.7435,5.7435,5.7442,5.7443,5.7443,5.7443,5.7418,5.7417,5.7416,0,0,0,0,0,0,0,0,0,0,0,0,0,5.7496,5.7496,5.7455,5.7455,5.7455,5.7436,5.7435,5.7435,5.7442,5.7443,5.7443,5.7444,5.7418,5.7417,5.7415,0,0,0,0,0,0,0,0,0,0,0,0,0,5.7478,5.7495,5.7455,5.7456,5.7456,5.7436,5.7435,5.7435,5.7442,5.7443,5.7443,5.7444,5.7419,5.7417,5.7415,5.7391,0,0,5.741,5.7409,0,0,0,0,0,0,0,0,5.7479,5.7476,5.7456,5.7456,5.7456,5.7442,5.744,5.742,5.7442,5.7447,5.7443,5.7444,5.7425,5.7423,5.7417,5.739,5.7389,5.741,5.7409,5.7408,5.7408,0,0,0,0,0,0,0,5.748,5.7477,5.7447,5.7456,5.7456,5.7457,5.7455,5.7436,5.7432,5.7447,5.7447,5.7445,5.7425,5.7419,5.7417,5.7388,5.741,5.7409,5.7408,5.7407,5.7342,5.7341,0,0,0,0,0,0,5.7482,5.7478,5.7448,5.7447,5.7469,5.7455,5.7453,5.7446,5.7432,5.7431,5.7444,5.7445,5.7421,5.7419,5.7416,5.7388,5.7408,5.7407,5.7406,5.7343,5.7342,5.7341,0,0,0,0,0,0,5.7483,5.7479,5.7449,5.7463,5.7459,5.7454,5.7445,5.7445,5.7439,5.7431,5.743,5.7439,5.7422,5.7418,5.7398,5.7387,5.7406,5.7404,5.7344,5.7343,5.7342,5.7331,0,0,0,0,0,0,5.7484,5.7479,5.7471,5.7462,5.7458,5.7432,5.7445,5.7444,5.7437,5.7438,5.7426,5.7424,5.7422,5.7401,5.7396,5.7385,5.7403,5.7345,5.7343,5.7342,5.7332,5.733,5.7327,0,0,0,0,0,5.7485,5.7467,5.747,5.7467,5.7447,5.7431,5.7429,5.7428,5.7436,5.7427,5.7422,5.7425,5.7389,5.7398,5.7394,5.7382,5.7345,5.7344,5.7342,5.7333,5.733,5.7327,0,0,0,0,0,0,5.7472,5.7466,5.7469,5.7448,5.7441,5.7433,5.7421,5.7425,5.7413,5.7414,5.7413,5.741,5.7389,5.7384,5.7394,5.7359,5.7368,5.7366,5.7363,5.736,5.7358,5.7359,5.7402,0,0,0,0,0,5.7467,5.7456,5.745,5.7432,5.7428,5.7426,5.7418,5.7419,5.741,5.7407,5.74,5.739,5.7377,5.7368,5.7356,5.7332,5.733,5.7322,5.7319,5.7317,5.7315,5.7303,5.7299,5.7336,5.7336,5.7336,0,0,5.7455,5.7451,5.7443,5.7429,5.7424,5.7411,5.7423,5.7409,5.7399,5.7404,5.7385,5.738,5.7369,5.7348,5.7338,5.7342,5.7304,5.7315,5.7314,5.7312,5.7301,5.7297,5.7294,5.7335,5.7335,5.7335,0,0,5.7428,5.7423,5.7408,5.7403,5.7396,5.7394,5.7391,5.7383,5.7381,5.7363,5.7366,5.7355,5.7332,5.7325,5.7318,5.7291,5.7293,5.7287,5.7274,5.7262,5.7259,5.7257,5.7248,5.7245,5.7285,5.7285,5.7285,0,5.7414,5.7397,5.74,5.7386,5.738,5.7387,5.7372,5.7366,5.7353,5.7349,5.7354,5.7328,5.732,5.7298,5.7292,5.7286,5.7282,5.7288,5.726,5.7257,5.7255,5.7246,5.7243,5.7284,5.7284,5.7284,5.7284,0,5.7381,5.7369,5.7358,5.7348,5.7341,5.7326,5.7326,5.7319,5.7321,5.7319,5.73,5.7293,5.728,5.7275,5.7275,5.7252,5.7256,5.7261,5.727,5.7251,5.7243,5.7239,5.7283,5.7283,5.7283,5.7283,0,0,5.7342,5.7337,5.7332,5.7329,5.7322,5.7313,5.7299,5.7288,5.7282,5.7274,5.7262,5.7244,5.725,5.7242,5.7242,5.7232,5.7213,5.7239,5.7238,5.7234,5.7188,5.7184,5.718,5.7215,5.7214,5.7214,5.7189,0,5.7314,5.7292,5.7295,5.7273,5.7263,5.727,5.7258,5.7253,5.7251,5.7241,5.7239,5.7226,5.7234,5.723,5.7221,5.7217,5.7203,5.7219,5.7203,5.7202,5.7205,5.7176,5.7171,5.7148,5.7186,5.7185,5.7185,0,5.7279,5.7272,5.725,5.7247,5.7243,5.7232,5.7223,5.7214,5.7208,5.7208,5.7201,5.7203,5.7189,5.72,5.7181,5.7192,5.7186,5.7183,5.7182,5.718,5.7192,5.7173,5.714,5.7137,5.718,5.718,5.7181,0,5.7253,5.7239,5.7224,5.7221,5.7217,5.7209,5.7207,5.7202,5.7196,5.7188,5.7184,5.7174,5.7168,5.716,5.716,5.7168,5.7141,5.7151,5.7139,5.7139,5.7132,5.7133,5.7098,5.7129,5.7129,5.7129,5.7129,0,5.7222,5.7208,5.7213,5.7204,5.7189,5.7193,5.7177,5.7175,5.7171,5.7162,5.7167,5.7157,5.7158,5.7148,5.7148,5.7132,5.713,5.7128,5.7128,5.7128,5.7128,5.7123,5.7125,5.7128,5.7129,5.7129,5.7129,0,5.719,5.7193,5.7178,5.7176,5.7176,5.7164,5.7163,5.7154,5.7154,5.7142,5.7139,5.7138,5.7127,5.7127,5.7114,5.7114,5.7095,5.7097,5.7097,5.7098,5.7086,5.7087,5.7047,5.7042,5.7076,5.7076,5.7076,0,5.717,5.716,5.7158,5.7153,5.7151,5.7142,5.7137,5.7141,5.7135,5.7129,5.7121,5.7112,5.7104,5.7086,5.7084,5.7074,5.7076,5.7062,5.7074,5.7074,5.7076,5.7076,5.7075,5.706,5.7059,5.7059,5.7059,0,5.7133,5.7136,5.7129,5.7124,5.7118,5.7113,5.7108,5.7104,5.7107,5.71,5.7091,5.7085,5.7074,5.7064,5.7055,5.7051,5.7055,5.7056,5.7052,5.7051,5.7052,5.7052,5.7091,5.7056,5.7056,5.7056,5.7057,5.7057,5.7107,5.7099,5.7097,5.709,5.7088,5.7084,5.7077,5.7077,5.7069,5.7061,5.7064,5.7053,5.7049,5.7038,5.7034,5.7025,5.703,5.7025,5.7024,5.7022,5.7021,5.7055,5.7024,5.7024,5.7024,5.7024,5.7024,0,5.7071,5.7071,5.7064,5.706,5.7054,5.7061,5.7057,5.7052,5.7043,5.7039,5.7033,5.7022,5.7013,5.7012,5.7003,5.6997,5.6998,5.6994,5.6994,5.6994,5.7018,5.7021,5.6993,5.6993,5.6993,5.6993,5.6993,5.6993,5.7051,5.7039,5.7042,5.7028,5.7028,5.7019,5.7017,5.7013,5.7011,5.7,5.6993,5.6993,5.6991,5.6983,5.6975,5.6975,5.6971,5.6966,5.6967,5.6989,5.6992,5.6995,5.6998,5.6966,5.6966,5.6944,5.6943,5.6943]}]]